Wind_Speed
41 43 42 43 44 45 45 48 51 51 52 58 63 67 74 78 80 82 83 85 87 88 91 92 92 88 86 88 86 89 83 77 75 86 92 93 91 88 84 81 73 72 70 68 68
44 45 46 47 47 47 49 52 51 52 59 63 69 75 80 83 84 85 86 87 89 92 95 98 102 101 97 93 92 90 88 84 83 84 92 96 96 94 89 85 82 77 74 75 70
45 47 50 49 49 50 52 52 52 58 63 70 75 80 81 84 85 86 81 79 81 84 89 99 104 110 108 105 99 95 91 94 90 84 89 98 98 96 91 87 86 85 83 77 74
47 49 50 51 51 53 52 52 57 62 68 73 79 83 83 82 78 72 67 65 67 69 74 81 93 108 115 112 110 104 97 98 93 93 90 92 103 97 94 94 96 84 81 81 78
49 49 49 51 51 51 51 57 61 65 72 77 80 81 77 69 62 58 54 54 55 59 63 70 78 91 107 115 116 110 105 102 100 98 95 92 94 103 99 97 95 91 88 86 81
49 50 50 52 53 51 56 61 63 70 76 81 79 77 69 62 58 51 46 43 47 52 55 60 72 80 93 109 115 117 112 106 105 103 100 95 94 101 102 102 99 95 92 90 86
49 51 52 55 52 55 60 64 68 75 80 82 82 77 67 60 56 48 43 42 39 41 51 54 60 72 84 100 113 120 117 111 110 106 103 100 95 89 106 103 99 95 94 92 90
49 53 55 53 53 59 63 66 72 79 83 87 87 78 66 60 55 46 42 38 38 35 43 52 54 65 75 88 107 121 124 118 113 110 108 102 94 96 102 106 104 100 96 94 94
52 55 53 52 57 62 65 68 74 81 87 91 94 81 70 64 59 45 36 31 34 40 38 46 51 60 70 79 97 115 128 123 118 114 111 104 102 100 99 100 106 103 99 95 95
54 52 50 54 59 64 67 73 76 86 91 97 100 86 72 67 63 50 42 32 30 36 39 40 46 54 65 75 92 110 128 128 124 117 115 110 106 103 101 96 102 105 102 97 93
52 51 52 56 61 66 69 75 80 88 95 99 103 91 75 69 64 52 46 37 26 32 33 37 40 48 59 70 83 103 121 131 129 123 119 116 110 105 103 101 101 102 103 99 94
53 50 53 59 63 68 72 79 85 90 97 102 103 94 77 69 67 55 48 42 33 31 28 29 35 41 53 66 79 97 116 132 131 126 123 117 110 108 105 101 98 96 102 101 96
53 49 55 61 66 70 74 81 87 92 98 103 105 98 81 70 67 58 54 44 35 27 26 24 29 36 48 62 75 91 111 129 136 130 126 120 114 110 104 103 102 96 94 99 97
53 50 56 63 67 69 76 83 88 95 99 105 107 101 84 71 68 58 54 49 39 22 21 22 24 33 42 57 73 86 105 121 136 134 128 125 115 109 107 105 102 98 89 92 93
51 52 58 64 67 71 77 85 91 98 102 106 110 105 90 75 70 63 54 49 41 28 15 20 23 32 39 50 66 80 96 113 133 138 133 126 120 112 112 109 104 98 93 88 91
49 53 60 66 68 72 78 85 92 98 104 109 113 107 93 78 72 66 54 48 39 34 22 16 23 29 36 45 61 75 89 105 127 140 136 129 125 119 114 105 100 95 92 87 85
49 55 61 66 68 73 79 86 90 98 105 109 113 113 95 82 72 67 55 45 34 30 27 18 19 26 34 42 53 70 81 97 117 135 133 131 131 125 110 104 99 94 91 88 83
52 57 63 67 70 75 81 87 91 98 103 111 113 116 97 85 75 68 58 48 35 26 27 18 18 23 29 38 48 62 76 87 103 120 134 135 128 125 115 110 103 98 96 92 88
55 60 64 68 72 77 82 86 92 97 102 108 114 116 100 87 75 70 61 47 38 27 22 20 14 17 25 32 40 52 69 80 92 109 135 139 127 127 122 112 106 100 98 97 96
57 62 66 70 73 78 83 88 94 98 102 108 113 116 101 91 78 71 64 53 42 29 18 15 15 14 17 26 35 44 58 74 88 104 121 133 127 130 125 117 108 102 99 99 97
60 64 68 72 74 78 84 89 96 99 103 107 113 117 111 93 79 74 68 58 46 30 20 13 12 12 15 23 31 40 47 66 83 93 107 118 127 126 125 116 109 102 100 98 95
64 68 70 73 75 77 84 88 94 100 105 107 111 115 112 95 82 74 67 60 51 32 25 18 12 12 15 17 27 35 42 48 60 76 91 111 128 131 124 116 108 104 100 97 94
65 68 71 74 74 79 84 89 93 98 103 107 110 113 106 98 81 73 67 60 53 39 29 20 12 10 9 14 19 26 35 45 57 73 84 99 120 131 127 116 109 104 101 98 94
66 71 72 73 74 78 83 88 93 97 100 107 109 111 101 97 83 73 65 59 53 38 28 21 11 5 5 9 16 23 32 43 57 66 76 90 111 125 125 117 112 108 102 96 87
71 74 76 75 75 78 82 87 92 92 97 102 110 110 104 93 79 69 60 55 50 38 29 22 14 9 6 4 12 21 31 40 50 64 72 88 103 122 129 123 116 105 98 89 85
75 76 76 75 78 80 83 87 90 94 95 101 107 110 106 96 80 68 61 54 45 32 29 23 17 15 15 6 10 16 27 37 44 53 66 78 98 108 117 119 109 105 93 87 86
79 81 80 77 80 81 84 87 88 92 95 97 101 106 101 94 79 68 60 51 42 28 23 21 19 21 20 21 15 10 19 31 44 54 64 75 89 100 102 105 110 107 96 85 83
Wind_Direction
322 321 322 322 320 317 318 318 316 311 306 303 299 295 291 287 284 280 275 269 265 260 255 249 244 238 237 235 233 231 226 221 218 219 217 218 221 220 217 217 216 216 219 219 220
323 323 324 324 323 320 320 319 317 313 312 309 306 302 298 295 291 286 281 272 265 259 253 247 244 237 233 231 231 230 229 222 217 219 218 217 219 220 219 215 216 214 216 220 220
325 325 325 325 326 325 322 322 320 320 318 317 312 308 306 302 299 293 284 274 267 259 250 244 240 238 234 231 227 228 226 223 219 216 220 217 218 219 219 215 215 215 213 217 220
326 325 326 327 328 326 326 326 326 325 324 323 321 315 312 307 300 293 285 276 267 259 253 244 237 233 232 230 228 225 224 224 219 217 219 219 217 218 218 217 214 215 215 215 220
326 327 328 328 329 330 330 331 330 330 330 330 328 322 318 312 303 298 290 281 270 260 249 245 237 230 227 226 226 223 222 221 217 216 216 219 218 218 217 219 215 214 214 216 217
328 328 330 330 332 334 334 334 335 336 336 337 334 330 326 319 314 309 298 285 273 264 254 242 237 231 224 222 221 221 219 217 216 216 215 216 217 216 217 217 218 213 214 215 217
331 330 332 333 335 336 336 337 339 341 342 343 342 340 336 329 324 318 306 295 281 265 253 247 237 230 224 219 216 217 216 215 215 214 215 214 216 217 218 218 218 216 214 216 216
333 333 335 336 337 339 339 340 342 345 346 349 349 346 341 337 334 324 312 299 284 270 254 247 235 228 224 218 214 212 215 213 213 212 213 214 213 215 219 216 217 217 214 215 216
335 335 337 339 340 340 341 342 345 347 348 351 354 351 348 343 341 331 323 301 278 270 262 248 240 226 222 217 212 209 211 212 212 211 210 210 213 214 220 218 216 217 215 214 217
335 337 341 340 340 342 342 344 346 349 351 355 356 354 351 348 344 336 333 318 290 270 265 254 241 227 220 214 211 208 208 210 212 209 210 207 211 213 216 217 218 216 217 214 217
336 339 341 341 342 342 343 345 349 351 353 356 357 355 353 350 347 342 336 333 314 287 271 261 244 228 220 214 209 207 206 209 212 210 209 207 208 211 214 215 219 217 217 216 216
337 340 340 342 343 344 345 346 350 353 356 358 358 356 355 352 350 346 341 336 331 303 287 266 250 232 222 212 209 207 205 207 209 210 209 207 206 210 212 213 218 217 217 217 215
337 339 340 342 344 344 346 348 351 354 357 359 360 358 356 355 353 348 342 338 333 317 293 275 252 234 221 214 208 208 205 205 208 209 209 207 206 210 210 212 216 218 217 218 217
337 338 341 343 344 345 347 349 352 355 358 359 0 360 357 355 355 351 343 342 333 332 295 276 248 237 222 216 208 208 206 205 206 208 209 207 205 208 209 211 212 216 216 217 219
336 339 341 343 344 346 348 350 352 355 357 0 0 360 359 356 355 354 348 344 336 330 300 268 248 234 226 216 213 209 208 206 205 207 209 208 205 207 208 210 210 213 216 216 218
337 339 341 343 345 346 348 351 353 354 356 359 1 360 358 358 355 356 350 346 342 327 318 265 247 236 227 217 213 211 209 207 206 207 209 209 206 208 209 209 209 210 215 217 218
338 339 341 344 344 346 348 350 353 353 356 358 0 359 357 357 357 356 352 350 341 327 314 287 243 239 231 219 214 212 210 209 208 207 207 209 208 208 208 207 208 209 214 217 217
337 339 341 344 344 346 348 348 352 354 356 356 0 358 357 356 356 355 353 346 342 332 314 299 264 233 237 226 217 211 211 210 209 207 207 209 209 208 208 207 204 206 210 215 218
337 339 341 343 345 345 347 347 350 353 356 355 357 359 357 356 356 354 354 348 346 342 326 311 288 256 236 230 222 216 210 209 208 208 207 208 205 207 209 204 206 206 210 214 218
337 338 340 343 344 344 345 346 349 351 355 355 356 0 359 356 355 354 353 355 351 346 339 317 306 272 235 227 219 216 215 208 208 208 208 208 205 206 207 205 204 205 209 214 218
335 338 340 341 342 343 344 347 347 349 353 355 355 359 359 357 356 352 352 353 354 351 347 341 314 288 248 225 217 216 215 210 209 206 207 205 207 207 207 204 205 205 209 213 217
334 336 338 339 339 342 342 345 346 348 350 354 354 355 356 356 356 352 351 352 354 354 355 350 328 289 257 231 224 218 211 211 211 209 204 204 202 208 207 206 203 205 208 211 216
331 333 336 336 338 340 342 343 345 347 347 351 353 354 354 355 355 353 352 352 353 354 1 350 340 301 258 237 223 222 213 200 198 205 206 199 202 206 206 205 204 205 208 211 213
328 332 334 333 335 339 340 341 343 345 347 348 351 353 353 354 354 354 352 349 352 354 3 3 357 323 249 221 215 207 204 198 197 199 201 197 201 204 206 206 205 206 207 212 211
326 329 331 332 333 336 338 340 341 344 345 347 348 351 353 353 353 354 352 349 353 354 19 16 17 31 41 200 198 199 196 195 194 196 196 197 198 203 205 203 206 204 207 209 210
323 326 328 329 331 333 335 336 339 340 344 345 346 350 350 352 352 353 352 352 352 357 22 30 45 63 58 75 146 177 191 189 191 187 194 193 197 200 205 207 201 202 205 209 209
319 322 324 325 327 329 331 333 336 338 341 343 345 347 349 350 351 352 351 352 354 1 22 32 55 68 77 87 94 135 168 176 181 185 187 192 195 197 201 202 205 199 198 206 209
Height
10848 10842 10836 10830 10823 10816 10810 10805 10798 10790 10782 10773 10763 10752 10739 10729 10725 10719 10715 10711 10707 10708 10710 10714 10721 10730 10738 10746 10758 10764 10785 10800 10809 10815 10816 10824 10837 10851 10864 10878 10894 10897 10903 10912 10917
10840 10833 10827 10820 10813 10806 10799 10792 10784 10775 10765 10753 10740 10725 10712 10701 10690 10682 10675 10670 10667 10669 10671 10678 10683 10695 10709 10721 10733 10745 10763 10781 10786 10790 10798 10808 10818 10832 10847 10866 10877 10885 10893 10895 10906
10832 10825 10818 10810 10803 10795 10787 10779 10771 10760 10747 10732 10715 10697 10685 10669 10653 10639 10629 10623 10619 10622 10629 10636 10648 10655 10673 10687 10707 10724 10744 10752 10765 10778 10779 10791 10804 10815 10834 10850 10861 10865 10873 10886 10895
10824 10816 10808 10800 10794 10785 10775 10766 10757 10745 10730 10711 10691 10670 10654 10637 10619 10600 10593 10585 10583 10583 10588 10593 10605 10619 10638 10659 10675 10694 10718 10728 10750 10754 10764 10776 10784 10804 10816 10829 10834 10862 10870 10877 10883
10815 10807 10800 10791 10784 10775 10764 10754 10743 10730 10712 10692 10670 10645 10624 10606 10591 10577 10566 10556 10554 10553 10557 10562 10570 10582 10600 10625 10642 10671 10689 10706 10721 10736 10745 10758 10779 10784 10799 10808 10828 10842 10855 10862 10874
10807 10799 10791 10782 10773 10764 10753 10742 10729 10714 10694 10672 10650 10625 10602 10583 10565 10554 10543 10536 10532 10530 10532 10537 10542 10551 10568 10588 10618 10634 10659 10683 10698 10715 10727 10743 10756 10769 10780 10789 10805 10827 10839 10849 10861
10799 10789 10781 10772 10762 10753 10742 10728 10715 10700 10678 10657 10630 10604 10581 10563 10547 10535 10525 10517 10514 10511 10510 10513 10519 10530 10539 10557 10582 10611 10638 10661 10679 10696 10711 10724 10742 10767 10757 10779 10794 10811 10826 10838 10848
10790 10781 10772 10763 10753 10742 10732 10719 10704 10686 10665 10640 10614 10589 10569 10550 10534 10521 10511 10503 10497 10495 10492 10492 10498 10505 10519 10535 10555 10585 10608 10636 10655 10673 10690 10711 10737 10738 10739 10761 10774 10790 10809 10824 10835
10783 10774 10764 10754 10744 10733 10722 10711 10693 10675 10652 10626 10600 10576 10554 10536 10520 10509 10500 10491 10484 10478 10476 10475 10480 10487 10497 10514 10534 10556 10587 10614 10632 10653 10669 10694 10704 10722 10728 10748 10761 10776 10793 10810 10822
10777 10767 10758 10748 10737 10724 10711 10696 10683 10660 10638 10612 10585 10566 10545 10526 10509 10496 10486 10477 10471 10465 10460 10460 10464 10472 10480 10494 10509 10532 10558 10589 10610 10630 10649 10669 10684 10704 10715 10736 10746 10764 10777 10797 10813
10769 10759 10751 10741 10729 10715 10702 10689 10673 10651 10626 10602 10577 10553 10533 10516 10500 10486 10475 10466 10459 10452 10449 10447 10451 10458 10467 10480 10500 10517 10543 10569 10588 10608 10627 10648 10662 10687 10699 10719 10727 10752 10766 10785 10801
10762 10753 10744 10733 10721 10707 10693 10676 10659 10641 10616 10594 10570 10544 10527 10509 10492 10477 10466 10456 10449 10441 10438 10438 10440 10448 10456 10467 10481 10499 10520 10545 10568 10591 10609 10632 10654 10668 10687 10711 10720 10740 10755 10771 10789
10756 10746 10737 10725 10713 10698 10683 10667 10650 10632 10612 10589 10566 10539 10520 10504 10484 10470 10457 10448 10440 10433 10429 10428 10430 10437 10445 10456 10469 10484 10503 10522 10546 10569 10592 10620 10638 10652 10681 10695 10710 10727 10747 10760 10775
10749 10740 10731 10719 10705 10692 10677 10660 10642 10625 10607 10585 10561 10540 10518 10500 10482 10468 10453 10441 10432 10429 10423 10420 10422 10428 10435 10444 10454 10468 10486 10505 10531 10554 10576 10598 10626 10640 10662 10683 10703 10719 10737 10750 10759
10741 10733 10723 10711 10699 10684 10670 10652 10633 10614 10598 10578 10554 10533 10515 10494 10478 10462 10449 10437 10426 10421 10420 10416 10416 10418 10425 10434 10443 10455 10472 10491 10514 10535 10554 10590 10609 10631 10642 10662 10691 10712 10725 10737 10749
10735 10726 10715 10703 10690 10677 10662 10646 10627 10609 10589 10567 10550 10529 10509 10492 10475 10461 10448 10434 10424 10415 10412 10410 10409 10411 10416 10424 10432 10444 10459 10478 10497 10516 10541 10573 10599 10606 10630 10665 10690 10710 10717 10726 10739
10729 10719 10709 10697 10685 10671 10656 10640 10626 10606 10582 10566 10546 10523 10503 10488 10473 10458 10444 10432 10421 10411 10405 10404 10403 10403 10406 10412 10422 10432 10446 10463 10480 10503 10543 10559 10573 10597 10628 10658 10682 10703 10709 10717 10725
10722 10713 10702 10691 10678 10664 10650 10634 10619 10602 10581 10559 10545 10521 10503 10483 10467 10454 10442 10428 10418 10407 10400 10397 10395 10398 10398 10402 10410 10421 10436 10451 10473 10502 10521 10540 10571 10589 10616 10642 10662 10681 10691 10700 10711
10715 10706 10696 10683 10670 10656 10643 10629 10612 10599 10583 10562 10539 10522 10497 10483 10466 10451 10438 10425 10414 10404 10396 10390 10389 10389 10392 10395 10403 10411 10423 10437 10458 10482 10491 10510 10562 10574 10592 10626 10649 10669 10680 10688 10697
10708 10698 10686 10675 10664 10650 10635 10621 10606 10592 10578 10556 10538 10518 10499 10478 10460 10447 10433 10420 10409 10400 10392 10386 10383 10383 10386 10388 10394 10401 10409 10425 10437 10457 10481 10514 10549 10556 10575 10614 10638 10655 10670 10680 10692
10702 10692 10680 10669 10658 10645 10630 10614 10596 10582 10572 10554 10531 10515 10496 10476 10459 10443 10427 10417 10407 10396 10388 10382 10379 10379 10380 10382 10386 10392 10401 10411 10421 10444 10474 10520 10537 10553 10567 10605 10627 10650 10660 10674 10691
10693 10684 10675 10664 10651 10642 10626 10613 10595 10574 10560 10552 10530 10511 10495 10476 10457 10441 10427 10414 10403 10394 10384 10380 10377 10375 10375 10378 10381 10386 10394 10409 10430 10448 10470 10490 10518 10531 10562 10595 10621 10636 10651 10667 10681
10689 10679 10669 10658 10647 10635 10620 10607 10594 10576 10555 10545 10529 10509 10492 10476 10461 10442 10424 10412 10402 10393 10386 10379 10376 10374 10374 10375 10378 10383 10392 10401 10413 10425 10450 10479 10508 10525 10547 10582 10609 10629 10644 10659 10676
10681 10674 10666 10655 10642 10632 10619 10603 10588 10573 10556 10535 10529 10511 10493 10475 10457 10441 10426 10414 10404 10394 10387 10379 10375 10371 10370 10371 10374 10379 10386 10396 10403 10421 10442 10472 10487 10513 10543 10573 10596 10619 10637 10655 10682
10671 10664 10655 10644 10634 10625 10615 10600 10586 10576 10555 10539 10522 10510 10497 10483 10463 10448 10433 10418 10406 10397 10391 10382 10377 10373 10373 10372 10373 10377 10383 10391 10402 10412 10433 10452 10478 10497 10519 10548 10581 10623 10637 10656 10672
10660 10654 10648 10636 10626 10617 10607 10595 10583 10566 10557 10541 10521 10508 10491 10478 10462 10448 10432 10422 10412 10402 10394 10387 10381 10378 10378 10378 10379 10382 10386 10390 10403 10417 10430 10455 10469 10492 10523 10555 10581 10616 10639 10652 10664
10650 10643 10635 10630 10618 10610 10600 10590 10580 10566 10553 10543 10527 10508 10492 10475 10460 10447 10434 10424 10415 10406 10399 10392 10387 10383 10383 10384 10387 10390 10394 10399 10404 10413 10428 10449 10472 10490 10520 10553 10579 10599 10627 10643 10654